Regional Weather Roundup
Issued by NWS

Home | Current Version | Previous Version | Graphics & Text | Print | Product List | Glossary On
Versions: 1 2 3 4 5 6 7 8 9 10 11 12 13 14 15 16 17 18 19 20 21 22 23 24 25 26 27 28 29 30 31 32 33 34 35 36 37 38 39 40 41 42 43 44 45 46 47 48 49 50
000
ASUS43 KDTX 250901
RWRMI
MICHIGAN HOURLY REGIONAL WEATHER ROUNDUP
NATIONAL WEATHER SERVICE DETROIT/PONTIAC MI
500 AM EDT SAT APR 25 2015

NOTE: "FAIR" INDICATES FEW OR NO CLOUDS BELOW 12,000 FEET WITH NO
SIGNIFICANT WEATHER AND/OR OBSTRUCTION TO VISIBILITY.

MIZ047>049-052>055-059>063-066>070-074>076-081>083-251000-
SOUTHEAST LOWER MICHIGAN

CITY           SKY/WX    TMP DP  RH WIND       PRES   REMARKS
ADRIAN         CLOUDY    40  38  93 E8        29.94F WCI  34
ALMA           CLOUDY    37  22  56 E5        29.96F WCI  33
ANN ARBOR      CLOUDY    40  37  89 E5        29.94F
BAD AXE        MOCLDY    28  23  84 NE3       30.00F
CARO           CLOUDY    32  23  70 CALM      29.98F
DETROIT CITY   CLOUDY    39  27  62 E5        29.99F
DETROIT        CLOUDY    42  38  85 NE5       29.97F
FLINT          CLOUDY    38  19  46 E6        29.98F WCI  33
GROSSE ILE     CLOUDY    41  37  87 E3        29.96F
HILLSDALE      CLOUDY    40  39  95 E8        29.91F WCI  35
HOWELL         CLOUDY    41  37  88 E6        29.95F

CITY           SKY/WX    TMP DP  RH WIND       PRES   REMARKS
JACKSON        CLOUDY    40  36  86 E7        29.92F
LAMBERTVILLE   CLOUDY    41  37  87 E5        29.95F FOG
LANSING        CLOUDY    42  37  82 CALM      29.94F
LAPEER         CLOUDY    34  22  61 CALM      29.98F
MASON          CLOUDY    41  36  82 SE5       29.94F
MONROE         LGT RAIN  39  39 100 CALM      29.94F
PONTIAC        CLOUDY    37  21  52 E7        29.97S WCI  32
PORT HOPE        N/A     29  23  78 SW3       30.00F
PORT HURON     CLOUDY    34  28  80 CALM      30.00F
TRI CITIES     CLOUDY    36  23  59 E7        29.99F WCI  30
TROY           CLOUDY    39  23  53 NE5       30.00S
SAGINAW HB     CLOUDY    34  25  69 E3        29.98F
$$
MIZ043>046-050>051-056>058-064>065-071>073-077>080-251000-
SOUTHWEST LOWER MICHIGAN

CITY           SKY/WX    TMP DP  RH WIND       PRES   REMARKS
BATTLE CREEK   CLOUDY    41  38  89 E7        29.91F
BENTON HARBOR  CLOUDY    42  38  85 E12       29.85F
BIG RAPIDS     MOCLDY    37  25  62 E6        29.93F WCI  32
COLDWATER      CLOUDY    40  36  85 E13       29.88F WCI  33
FREMONT        CLOUDY    42  29  61 E12       29.90F
HOLLAND        CLOUDY    44  39  82 E10       29.89F
GRAND RAPIDS   CLOUDY    42  36  79 E10       29.92F
IONIA          CLOUDY    38  34  87 NE9       29.93F WCI  31
KALAMAZOO      CLOUDY    42  37  82 E9        29.89F
LUDINGTON      CLOUDY    41  23  48 E6        29.91F
MARSHALL       CLOUDY    39  37  92 E7        29.91F WCI  34
MOUNT PLEASANT CLOUDY    36  22  55 NE3       29.96F
MUSKEGON       CLOUDY    43  36  76 E9        29.89F
SOUTH HAVEN    CLOUDY    43  38  82 SE9       29.86F
$$
MIZ016>042-251000-
NORTHERN LOWER MICHIGAN

CITY           SKY/WX    TMP DP  RH WIND       PRES   REMARKS
ALPENA         CLEAR     23  17  78 CALM      30.01F
BEAVER ISLAND  PTCLDY    27  23  85 CALM      30.00F
BELLAIRE       MOCLDY    34  20  57 CALM      29.99F
CADILLAC       MOCLDY    34  23  66 E6        29.93F WCI  28
CHARLEVOIX     MOCLDY    33  23  67 E6        30.02F WCI  27
FRANKFORT      CLOUDY    41  18  39 E7        29.94F
GAYLORD        CLOUDY    29  18  63 CALM      29.97F
GRAYLING       MOCLDY    32  23  69 E3        29.98F
HARBOR SPRINGS PTCLDY    24  19  79 CALM      29.99F
HOUGHTON LAKE  CLOUDY    32  22  66 E3        29.97F
MANISTEE       MOCLDY    36  18  48 E7        29.93F WCI  30
OSCODA         CLEAR     22  20  92 CALM      30.01F
PELLSTON       PTCLDY    19  16  88 CALM      30.01F
ROGERS CITY    CLEAR     25  22  88 SW5       30.02S WCI  19
TRAVERSE CITY  CLOUDY    37  27  67 E3        29.96F
$$
MIZ007>008-015-251000-
EASTERN UPPER MICHIGAN

CITY           SKY/WX    TMP DP  RH WIND       PRES   REMARKS
KINROSS        CLEAR     23  23 100 N3        30.00F
MACKINAC ISLAN CLEAR     28  22  81 NE6       30.00S WCI  21
NEWBERRY       CLEAR     25  21  84 CALM      30.00F
S. S. MARIE    CLEAR     24  20  84 CALM      30.00S
$$
MIZ004>006-011>014-085-251000-
CENTRAL UPPER MICHIGAN

CITY           SKY/WX    TMP DP  RH WIND       PRES   REMARKS
MANISTIQUE     CLEAR     27  18  71 N3        30.00F
ESCANABA       CLEAR     34  25  69 E5        29.98F WCI  30
MENOMINEE      CLOUDY    37  19  48 E9        29.96S WCI  31
SAWYER-GWINN   CLEAR     29  22  75 NE5       29.97F WCI  24
$$
MIZ001>003-009>011-084-251000-
WESTERN UPPER MICHIGAN

CITY           SKY/WX    TMP DP  RH WIND       PRES   REMARKS
IRON MOUNTAIN  CLOUDY    34  24  67 CALM      29.95S
HOUGHTON       CLOUDY    31  24  75 E9        29.98S WCI  23
COPPER HARBOR    N/A     28  24  85 CALM      30.02S
IRONWOOD       CLOUDY    37  27  65 E3        29.90S
$$

ABBREVIATIONS USED IN REMARKS
   TC - TEMPERATURE IN CELSIUS
  WCI - WIND CHILL INDEX
   HX - HEAT INDEX
  VSB - VISIBILITY



USA.gov is the U.S. government's official web portal to all federal, state and local government web resources and services.